COSMOS 1275 DEB, 12715

Orbit data source: Space-Track

COSMOS 1275 DEB, 12715 is space debris in LEO originally from a launch on Thu, 04 Jun 1981 UTC launched from the Plesetsk Missile And Space Complex (PKMTR). Debris objects in space refer to the collection of defunct objects orbiting the Earth. Examples of debris include non-operational satellites, rocket bodies, and fragments generated from explosions, collisions, or faulty payload assembly.

Loading next visibility...
Identifier
12715, 1981-053BK
Orbit
LEO
Country
Flag of CISCIS
Related business
Manufacturer
Unknown
Mission
Spacecraft
Bus & Motor
Unknown
Mass
Unknown
Launch date (UTC)
1981-06-04 (45 years ago)
Launch vehicle
Unknown
Launch site
Plesetsk Missile And Space Complex (PKMTR)
Object type
Payload
Rocket body
Debris
Shape & HBR
Unknown shape, 0.2 m
Radar Cross Section
Medium (>0.1 m² and <1 m²)

Expand to show TLE details & history
Last TLE update: 1 day ago

TLE from 1 day ago
0 COSMOS 1275 DEB
1 12715U 81053BK  26175.18543512  .00001072  00000-0  37036-3 0  9995
2 12715  83.1052  91.8132 0059234 205.1351 271.0953 14.34033990316464
Epoch: 2026-06-24T04:27Z
TLE epoch observation values (Epoch: 2026-06-24T04:27:01.594Z)
Latitude
63.68532°
Longitude
-81.36564°
Altitude
788.701 km
Speed
7.466 km/s
True Right ascension
17h 10m 56s
True Declination
63° 32' 56"
Sunlit
Object was in daylight at epoch
Visualization orbit readout
Latitude
Unknown
Longitude
Unknown
Altitude
Unknown
Speed
Unknown
Apparent Right ascension
Unknown
Apparent Declination
Unknown
Sunlit
N/A
Visualization observer readout
Local Sidereal Time
19:01:21
Azimuth
Unknown
Elevation
Unknown
Doppler factor
Unknown
Orbital elements
Apogee altitude
817.712 km
Perigee altitude
732.967 km
Semi-major axis
7,153.477 km
Eccentricity
0.00592
Inclination
83.1052°
RAAN
91.8132°
Arg. of periapsis
205.1351°
True anomaly
270.41657°
Mean anomaly
271.0953°
Eccentric anomaly
270.75594°
Mean motion
3.5873 °/min
Orbital period
100.35 mins
BSTAR
0.00037036
Loading maneuver chart data...
Computing Atmospheric mass density...

Documentation

Showing up to 5 results
|